Location: Boda
(47.1872°N, 9.5454°E)
Time: 18:36:47
(UTC+00:00)

Cosmos 389 Rocket - Pass Details

Date: 14 May 2021
Orbit: 439 x 473 km, 81.1° (Epoch: 16 June)

Event Time Altitude Azimuth Distance (km) Brightness Sun altitude
Rises 02:46:18 0° 353° (N) 2,498 6.7 -9.3°
Reaches altitude 10° 02:48:28 10° 359° (N) 1,611 5.8 -9.0°
Maximum altitude 02:51:53 48° 75° (ENE) 601 3.5 -8.6°
Drops below altitude 10° 02:55:14 10° 152° (SSE) 1,578 5.1 -8.1°
Sets 02:57:19 0° 158° (SSE) 2,438 6.0 -7.8°
